Time,TemperatureF,DewpointF,PressureIn,WindDirection,WindDirectionDegrees,WindSpeedMPH,WindSpeedGustMPH,Humidity,HourlyPrecipIn,Conditions,Clouds,dailyrainin,SoftwareType,DateUTC
2013-06-25 00:08:00,67.7,66.0,29.97,SW,232,2.0,5.0,94,0.00,,,0.64,weatherlink.com 1.10,2013-06-25 04:08:00,
2013-06-25 00:21:00,68.0,66.0,29.97,SW,227,2.0,3.0,94,0.00,,,0.64,weatherlink.com 1.10,2013-06-25 04:21:00,
2013-06-25 00:36:00,67.8,66.0,29.98,West,259,1.0,8.0,94,0.00,,,0.00,weatherlink.com 1.10,2013-06-25 04:36:00,
2013-06-25 00:51:00,68.1,66.0,29.98,WSW,238,3.0,6.0,94,0.00,,,0.00,weatherlink.com 1.10,2013-06-25 04:51:00,
2013-06-25 01:08:00,68.8,67.0,29.98,SW,214,2.0,8.0,95,0.00,,,0.00,weatherlink.com 1.10,2013-06-25 05:08:00,
2013-06-25 01:23:00,69.4,68.0,29.98,SW,219,2.0,7.0,94,0.00,,,0.00,weatherlink.com 1.10,2013-06-25 05:23:00,
2013-06-25 01:38:00,69.5,68.0,29.98,SSW,196,1.0,5.0,94,0.00,,,0.00,weatherlink.com 1.10,2013-06-25 05:38:00,
2013-06-25 01:53:00,69.6,68.0,29.98,SSW,195,1.0,4.0,94,0.00,,,0.00,weatherlink.com 1.10,2013-06-25 05:53:00,
2013-06-25 02:08:00,69.5,68.0,29.98,SSW,195,2.0,4.0,94,0.00,,,0.00,weatherlink.com 1.10,2013-06-25 06:08:00,
2013-06-25 02:23:00,69.5,68.0,29.97,SSW,200,3.0,5.0,94,0.00,,,0.00,weatherlink.com 1.10,2013-06-25 06:23:00,
2013-06-25 02:38:00,69.4,68.0,29.96,South,186,1.0,5.0,94,0.00,,,0.00,weatherlink.com 1.10,2013-06-25 06:38:00,
2013-06-25 02:53:00,69.5,68.0,29.96,SSW,200,2.0,5.0,95,0.00,,,0.00,weatherlink.com 1.10,2013-06-25 06:53:00,
2013-06-25 03:08:00,69.6,68.0,29.96,SSW,200,2.0,4.0,95,0.00,,,0.00,weatherlink.com 1.10,2013-06-25 07:08:00,
2013-06-25 03:24:00,69.8,69.0,29.96,SSW,202,1.0,3.0,96,0.00,,,0.00,weatherlink.com 1.10,2013-06-25 07:24:00,
2013-06-25 03:39:00,69.9,69.0,29.96,SSW,202,0.0,4.0,96,0.00,,,0.00,weatherlink.com 1.10,2013-06-25 07:39:00,
2013-06-25 03:55:00,70.0,69.0,29.96,South,178,2.0,4.0,97,0.00,,,0.00,weatherlink.com 1.10,2013-06-25 07:55:00,
2013-06-25 04:10:00,70.4,70.0,29.96,South,182,1.0,4.0,97,0.00,,,0.00,weatherlink.com 1.10,2013-06-25 08:10:00,
2013-06-25 04:26:00,70.6,70.0,29.97,SSW,205,3.0,5.0,98,0.00,,,0.00,weatherlink.com 1.10,2013-06-25 08:26:00,
2013-06-25 04:40:00,70.6,70.0,29.96,South,190,4.0,6.0,98,0.00,,,0.00,weatherlink.com 1.10,2013-06-25 08:40:00,
2013-06-25 04:56:00,70.6,70.0,29.96,SSW,207,3.0,7.0,98,0.00,,,0.00,weatherlink.com 1.10,2013-06-25 08:56:00,
2013-06-25 05:12:00,70.6,70.0,29.96,SSW,207,3.0,8.0,97,0.00,,,0.00,weatherlink.com 1.10,2013-06-25 09:12:00,
2013-06-25 05:26:00,70.5,70.0,29.96,SW,227,3.0,8.0,97,0.00,,,0.00,weatherlink.com 1.10,2013-06-25 09:26:00,
2013-06-25 05:41:00,70.4,70.0,29.97,SSW,203,3.0,8.0,97,0.00,,,0.00,weatherlink.com 1.10,2013-06-25 09:41:00,
2013-06-25 05:56:00,70.3,69.0,29.97,SW,219,5.0,6.0,97,0.00,,,0.00,weatherlink.com 1.10,2013-06-25 09:56:00,
2013-06-25 06:13:00,70.2,69.0,29.97,SW,223,4.0,8.0,96,0.00,,,0.00,weatherlink.com 1.10,2013-06-25 10:13:00,
2013-06-25 06:28:00,70.1,69.0,29.97,SW,217,0.0,8.0,96,0.00,,,0.00,weatherlink.com 1.10,2013-06-25 10:28:00,
2013-06-25 06:43:00,70.1,69.0,29.97,South,175,3.0,10.0,95,0.00,,,0.00,weatherlink.com 1.10,2013-06-25 10:43:00,
2013-06-25 06:58:00,70.1,69.0,29.96,South,186,3.0,9.0,95,0.00,,,0.00,weatherlink.com 1.10,2013-06-25 10:58:00,
2013-06-25 07:13:00,70.3,69.0,29.96,South,184,5.0,10.0,95,0.00,,,0.00,weatherlink.com 1.10,2013-06-25 11:13:00,
2013-06-25 07:28:00,70.7,69.0,29.96,SSW,192,3.0,9.0,94,0.00,,,0.00,weatherlink.com 1.10,2013-06-25 11:28:00,
2013-06-25 07:44:00,71.3,69.0,29.96,WSW,245,3.0,10.0,93,0.00,,,0.00,weatherlink.com 1.10,2013-06-25 11:44:00,
2013-06-25 07:59:00,71.8,70.0,29.97,SSW,196,3.0,7.0,93,0.00,,,0.00,weatherlink.com 1.10,2013-06-25 11:59:00,
2013-06-25 08:14:00,72.8,70.0,29.96,SSW,194,7.0,9.0,92,0.00,,,0.00,weatherlink.com 1.10,2013-06-25 12:14:00,
2013-06-25 08:29:00,73.6,71.0,29.96,WSW,242,4.0,7.0,91,0.00,,,0.00,weatherlink.com 1.10,2013-06-25 12:29:00,
2013-06-25 08:44:00,74.4,71.0,29.96,South,173,5.0,10.0,90,0.00,,,0.00,weatherlink.com 1.10,2013-06-25 12:44:00,
2013-06-25 09:00:00,75.3,72.0,29.96,South,169,3.0,10.0,88,0.00,,,0.00,weatherlink.com 1.10,2013-06-25 13:00:00,
2013-06-25 09:15:00,75.7,72.0,29.95,SSW,202,7.0,13.0,88,0.00,,,0.00,weatherlink.com 1.10,2013-06-25 13:15:00,
2013-06-25 09:30:00,76.5,73.0,29.95,West,260,4.0,12.0,88,0.00,,,0.00,weatherlink.com 1.10,2013-06-25 13:30:00,
2013-06-25 09:45:00,77.7,73.0,29.95,South,178,3.0,11.0,85,0.00,,,0.00,weatherlink.com 1.10,2013-06-25 13:45:00,
2013-06-25 10:01:00,78.2,74.0,29.96,SSW,213,2.0,8.0,86,0.00,,,0.00,weatherlink.com 1.10,2013-06-25 14:01:00,
2013-06-25 10:16:00,78.8,74.0,29.95,SW,226,3.0,9.0,84,0.00,,,0.00,weatherlink.com 1.10,2013-06-25 14:16:00,
2013-06-25 10:31:00,79.6,74.0,29.95,WNW,288,3.0,14.0,84,0.00,,,0.00,weatherlink.com 1.10,2013-06-25 14:31:00,
2013-06-25 10:48:00,81.0,75.0,29.95,SW,229,6.0,12.0,82,0.00,,,0.00,weatherlink.com 1.10,2013-06-25 14:48:00,
2013-06-25 11:03:00,82.2,76.0,29.95,West,277,3.0,13.0,80,0.00,,,0.00,weatherlink.com 1.10,2013-06-25 15:03:00,
2013-06-25 11:17:00,83.2,75.0,29.95,West,261,5.0,13.0,77,0.00,,,0.00,weatherlink.com 1.10,2013-06-25 15:17:00,
2013-06-25 11:33:00,83.4,74.0,29.95,SW,225,12.0,16.0,73,0.00,,,0.00,weatherlink.com 1.10,2013-06-25 15:33:00,
2013-06-25 11:48:00,83.0,75.0,29.96,WNW,290,3.0,15.0,77,0.00,,,0.00,weatherlink.com 1.10,2013-06-25 15:48:00,
2013-06-25 12:03:00,83.8,75.0,29.95,West,267,8.0,16.0,75,0.00,,,0.00,weatherlink.com 1.10,2013-06-25 16:03:00,
2013-06-25 12:18:00,83.9,76.0,29.94,WSW,251,12.0,16.0,76,0.00,,,0.00,weatherlink.com 1.10,2013-06-25 16:18:00,
2013-06-25 12:34:00,84.4,75.0,29.94,WSW,246,8.0,15.0,74,0.00,,,0.00,weatherlink.com 1.10,2013-06-25 16:34:00,
2013-06-25 12:49:00,84.6,75.0,29.94,West,259,11.0,18.0,73,0.00,,,0.00,weatherlink.com 1.10,2013-06-25 16:49:00,
2013-06-25 13:06:00,85.7,75.0,29.94,West,281,5.0,15.0,71,0.00,,,0.00,weatherlink.com 1.10,2013-06-25 17:06:00,
2013-06-25 13:19:00,86.2,76.0,29.93,West,259,7.0,22.0,71,0.00,,,0.00,weatherlink.com 1.10,2013-06-25 17:19:00,
2013-06-25 13:34:00,86.1,75.0,29.93,West,263,6.0,17.0,69,0.00,,,0.00,weatherlink.com 1.10,2013-06-25 17:34:00,
2013-06-25 13:50:00,86.3,75.0,29.92,SW,221,8.0,15.0,68,0.00,,,0.00,weatherlink.com 1.10,2013-06-25 17:50:00,
2013-06-25 14:08:00,86.4,74.0,29.92,West,262,12.0,17.0,66,0.00,,,0.00,weatherlink.com 1.10,2013-06-25 18:08:00,
2013-06-25 14:20:00,87.0,76.0,29.91,WSW,243,4.0,14.0,69,0.00,,,0.00,weatherlink.com 1.10,2013-06-25 18:20:00,
2013-06-25 14:35:00,87.5,75.0,29.91,West,271,7.0,18.0,66,0.00,,,0.00,weatherlink.com 1.10,2013-06-25 18:35:00,
2013-06-25 14:51:00,87.8,76.0,29.90,WNW,296,5.0,12.0,67,0.00,,,0.00,weatherlink.com 1.10,2013-06-25 18:51:00,
2013-06-25 15:06:00,87.9,76.0,29.89,WSW,249,11.0,15.0,67,0.00,,,0.00,weatherlink.com 1.10,2013-06-25 19:06:00,
2013-06-25 15:21:00,88.2,75.0,29.88,WSW,255,5.0,12.0,65,0.00,,,0.00,weatherlink.com 1.10,2013-06-25 19:21:00,
2013-06-25 15:38:00,88.0,74.0,29.88,WSW,241,5.0,17.0,64,0.00,,,0.00,weatherlink.com 1.10,2013-06-25 19:38:00,
2013-06-25 15:53:00,87.4,74.0,29.88,WSW,240,10.0,17.0,64,0.00,,,0.00,weatherlink.com 1.10,2013-06-25 19:53:00,
2013-06-25 16:08:00,87.9,73.0,29.87,South,184,10.0,16.0,62,0.00,,,0.00,weatherlink.com 1.10,2013-06-25 20:08:00,
2013-06-25 16:23:00,88.9,74.0,29.87,WSW,250,10.0,18.0,61,0.00,,,0.00,weatherlink.com 1.10,2013-06-25 20:23:00,
2013-06-25 16:38:00,88.6,73.0,29.86,South,185,5.0,15.0,61,0.00,,,0.00,weatherlink.com 1.10,2013-06-25 20:38:00,
2013-06-25 16:53:00,88.1,73.0,29.86,SW,232,9.0,20.0,62,0.00,,,0.00,weatherlink.com 1.10,2013-06-25 20:53:00,
2013-06-25 17:08:00,88.2,74.0,29.85,West,279,6.0,16.0,62,0.00,,,0.00,weatherlink.com 1.10,2013-06-25 21:08:00,
2013-06-25 17:23:00,88.4,73.0,29.85,WSW,254,11.0,16.0,61,0.00,,,0.00,weatherlink.com 1.10,2013-06-25 21:23:00,
2013-06-25 17:39:00,88.3,74.0,29.84,SW,225,9.0,13.0,63,0.00,,,0.00,weatherlink.com 1.10,2013-06-25 21:39:00,
2013-06-25 17:54:00,88.3,73.0,29.84,WSW,253,6.0,18.0,60,0.00,,,0.00,weatherlink.com 1.10,2013-06-25 21:54:00,
2013-06-25 18:09:00,87.9,73.0,29.83,SSW,212,7.0,15.0,62,0.00,,,0.00,weatherlink.com 1.10,2013-06-25 22:09:00,
2013-06-25 18:25:00,87.4,73.0,29.82,WSW,240,10.0,16.0,62,0.00,,,0.00,weatherlink.com 1.10,2013-06-25 22:25:00,
2013-06-25 18:40:00,87.2,73.0,29.82,SSW,204,5.0,13.0,63,0.00,,,0.00,weatherlink.com 1.10,2013-06-25 22:40:00,
2013-06-25 19:10:00,86.5,73.0,29.82,SW,227,7.0,14.0,65,0.00,,,0.00,weatherlink.com 1.10,2013-06-25 23:10:00,
2013-06-25 19:27:00,86.3,73.0,29.82,WSW,254,3.0,16.0,65,0.00,,,0.00,weatherlink.com 1.10,2013-06-25 23:27:00,
2013-06-25 19:41:00,85.6,73.0,29.82,WSW,252,5.0,13.0,66,0.00,,,0.00,weatherlink.com 1.10,2013-06-25 23:41:00,
2013-06-25 19:56:00,84.9,73.0,29.82,SW,222,3.0,9.0,67,0.00,,,0.00,weatherlink.com 1.10,2013-06-25 23:56:00,
2013-06-25 20:11:00,84.3,72.0,29.82,SW,223,3.0,9.0,67,0.00,,,0.00,weatherlink.com 1.10,2013-06-26 00:11:00,
2013-06-25 20:28:00,83.7,73.0,29.82,SW,228,4.0,6.0,69,0.00,,,0.00,weatherlink.com 1.10,2013-06-26 00:28:00,
2013-06-25 20:43:00,83.0,72.0,29.82,SW,232,5.0,6.0,69,0.00,,,0.00,weatherlink.com 1.10,2013-06-26 00:43:00,
2013-06-25 20:58:00,82.4,72.0,29.82,SSW,206,2.0,8.0,70,0.00,,,0.00,weatherlink.com 1.10,2013-06-26 00:58:00,
2013-06-25 21:13:00,81.8,72.0,29.82,SSW,206,0.0,4.0,73,0.00,,,0.00,weatherlink.com 1.10,2013-06-26 01:13:00,
2013-06-25 21:28:00,81.1,73.0,29.81,SW,217,2.0,3.0,75,0.00,,,0.00,weatherlink.com 1.10,2013-06-26 01:28:00,
2013-06-25 21:43:00,80.4,72.0,29.82,SSW,194,1.0,4.0,76,0.00,,,0.00,weatherlink.com 1.10,2013-06-26 01:43:00,
2013-06-25 21:58:00,80.4,72.0,29.83,SW,225,1.0,5.0,76,0.00,,,0.00,weatherlink.com 1.10,2013-06-26 01:58:00,
2013-06-25 22:13:00,80.5,72.0,29.83,West,259,4.0,5.0,76,0.00,,,0.00,weatherlink.com 1.10,2013-06-26 02:13:00,
2013-06-25 22:28:00,80.4,73.0,29.83,SW,218,1.0,5.0,77,0.00,,,0.00,weatherlink.com 1.10,2013-06-26 02:28:00,
2013-06-25 22:44:00,80.5,72.0,29.84,West,270,5.0,10.0,76,0.00,,,0.00,weatherlink.com 1.10,2013-06-26 02:44:00,
2013-06-25 22:59:00,80.6,69.0,29.86,WNW,288,6.0,14.0,68,0.00,,,0.00,weatherlink.com 1.10,2013-06-26 02:59:00,
2013-06-25 23:14:00,79.4,67.0,29.87,West,260,7.0,18.0,66,0.00,,,0.00,weatherlink.com 1.10,2013-06-26 03:14:00,
2013-06-25 23:30:00,76.9,67.0,29.87,WNW,284,2.0,7.0,72,0.00,,,0.00,weatherlink.com 1.10,2013-06-26 03:30:00,
2013-06-25 23:45:00,75.0,67.0,29.88,West,275,5.0,11.0,76,0.00,,,0.00,weatherlink.com 1.10,2013-06-26 03:45:00,